Weather History for Quesnel, BC

Change the Weather History Date:

Monday, October 17, 2011

  Actual Average Record
Temperature  
Mean Temperature 44 °F -  
Max Temperature 53 °F 48 °F 57 °F (2000)
Min Temperature 35 °F 31 °F 19 °F (2006)
Degree Days  
Heating Degree Days 21    
Moisture  
Dew Point 37 °F    
Average Humidity 84    
Maximum Humidity 100    
Minimum Humidity 58    
Precipitation  
Precipitation 0.00 in - - ()
Sea Level Pressure  
Sea Level Pressure 30.29 in    
Wind  
Wind Speed 3 mph ()    
Max Wind Speed 14 mph    
Max Gust Speed -    
Visibility 8.5 miles    
Events Rain    
Averages and records for this station are not official NWS values.
T = Trace of Precipitation, MM = Missing Value Source: Averaged Metar Reports

Daily Weather History Graph

Daily Weather History Graph

Search for Another Location

Airport:

Trip Planner

Search our weather history database for the weather conditions in past years. The results will help you decide how hot, cold, wet, or windy it might be!

Date:

Astronomy

Oct. 17, 2011 Rise Set
Actual Time 7:39 AM PDT 6:10 PM PDT
Civil Twilight 7:04 AM PDT 6:45 PM PDT
Nautical Twilight 6:24 AM PDT 7:25 PM PDT
Astronomical Twilight 5:44 AM PDT 8:05 PM PDT
Moon 9:21 PM PDT (10/17) 1:26 PM PDT (10/17)
Length of Visible Light 11h 40m
Length of Day
10h 30m
Waning Gibbous, 73% of the Moon is Illuminated
Oct 17
Waning Gibbous
Oct 19
Last Quarter
Oct 26
New
Nov 2
First Quarter
Nov 10
Full

Hourly Weather History & Observations

Time (PDT) Temp. Windchill Dew Point Humidity Pressure Visibility Wind Dir Wind Speed Gust Speed Precip Events Conditions
12:00 AM 35.6 °F 32.8 °F 32.0 °F 87% 30.24 in 9.0 mi WNW 3.5 mph - N/A   Overcast
1:16 AM 37.4 °F - 33.8 °F 87% 30.23 in 9.0 mi Variable 2.3 mph - N/A Rain Light Rain
2:00 AM 37.4 °F - 35.6 °F 93% 30.23 in 9.0 mi Calm Calm - N/A Rain Light Rain
3:00 AM 37.4 °F 34.9 °F 35.6 °F 93% 30.24 in 9.0 mi WSW 3.5 mph - N/A Rain Light Rain
4:00 AM 37.4 °F - 37.4 °F 100% 30.25 in 9.0 mi Calm Calm - N/A Rain Light Rain
4:05 AM 37.4 °F - 37.4 °F 100% 30.25 in 9.0 mi Calm Calm - N/A   Overcast
4:12 AM 37.4 °F - 37.4 °F 100% 30.25 in 8.0 mi Variable 2.3 mph - N/A Rain Light Rain
4:53 AM 37.4 °F - 37.4 °F 100% 30.27 in 5.0 mi Variable 2.3 mph - N/A Rain Light Rain
5:00 AM 37.4 °F - 37.4 °F 100% 30.27 in 4.0 mi Variable 2.3 mph - N/A Rain Light Rain
5:12 AM 37.4 °F - 37.4 °F 100% 30.27 in 6.0 mi Calm Calm - N/A Rain Light Rain
5:49 AM 39.2 °F - 37.4 °F 93% 30.27 in 9.0 mi Variable 2.3 mph - N/A   Overcast
6:00 AM 37.4 °F - 35.6 °F 93% 30.27 in 9.0 mi Calm Calm - N/A   Overcast
7:00 AM 37.4 °F - 35.6 °F 93% 30.29 in 9.0 mi Calm Calm - N/A   Scattered Clouds
8:00 AM 37.4 °F - 35.6 °F 93% 30.29 in 9.0 mi Variable 2.3 mph - N/A   Overcast
8:12 AM 37.4 °F - 35.6 °F 93% 30.30 in 9.0 mi Variable 2.3 mph - N/A Rain Light Rain
9:00 AM 41.0 °F 37.1 °F 39.2 °F 93% 30.32 in 9.0 mi South 5.8 mph - N/A Rain Light Rain
9:04 AM 41.0 °F 36.4 °F 39.2 °F 93% 30.32 in 9.0 mi South 6.9 mph - N/A   Mostly Cloudy
10:00 AM 44.6 °F 40.2 °F 37.4 °F 76% 30.32 in 9.0 mi SSE 8.1 mph - N/A   Scattered Clouds
11:00 AM 46.4 °F 40.4 °F 37.4 °F 71% 30.33 in 9.0 mi SSE 13.8 mph - N/A   Mostly Cloudy
1:00 PM 50.0 °F - 39.2 °F 66% 30.32 in 9.0 mi SE 8.1 mph - N/A   Overcast
2:00 PM 51.8 °F - 39.2 °F 62% 30.32 in 9.0 mi SE 6.9 mph - N/A   Overcast
3:00 PM 51.8 °F - 39.2 °F 62% 30.31 in 9.0 mi ESE 8.1 mph - N/A   Mostly Cloudy
4:00 PM 53.6 °F - 41.0 °F 62% 30.30 in 9.0 mi SE 8.1 mph - N/A   Overcast
5:00 PM 53.6 °F - 39.2 °F 58% 30.31 in 9.0 mi ESE 6.9 mph - N/A   Overcast
7:00 PM 51.8 °F - 39.2 °F 62% 30.32 in 9.0 mi Calm Calm - N/A   Scattered Clouds
9:00 PM 46.4 °F 43.5 °F 37.4 °F 71% 30.32 in 9.0 mi South 5.8 mph - N/A   Scattered Clouds
10:00 PM 50.0 °F - 39.2 °F 66% 30.31 in 9.0 mi Variable 2.3 mph - N/A   Scattered Clouds